Time,TemperatureF,DewpointF,PressureIn,WindDirection,WindDirectionDegrees,WindSpeedMPH,WindSpeedGustMPH,Humidity,HourlyPrecipIn,Conditions,Clouds,dailyrainin,SoftwareType,DateUTC
2013-01-10 00:02:00,37.0,34.0,30.29,SSE,154,5.0,8.0,87,0.00,,,0.00,,2013-01-10 06:02:00,
2013-01-10 00:12:00,37.0,34.0,30.29,SSE,154,5.0,8.0,87,0.00,,,0.00,,2013-01-10 06:12:00,
2013-01-10 00:22:00,36.0,33.0,30.28,SSE,158,5.0,8.0,89,0.00,,,0.00,,2013-01-10 06:22:00,
2013-01-10 00:32:00,35.0,33.0,30.27,SSE,155,7.0,9.0,92,0.00,,,0.00,,2013-01-10 06:32:00,
2013-01-10 00:42:00,35.0,33.0,30.27,SSE,155,7.0,9.0,92,0.00,,,0.00,,2013-01-10 06:42:00,
2013-01-10 00:52:00,35.0,33.0,30.27,South,169,5.0,7.0,92,0.00,,,0.00,,2013-01-10 06:52:00,
2013-01-10 01:02:00,35.0,33.0,30.26,SSE,147,5.0,7.0,94,0.00,,,0.00,,2013-01-10 07:02:00,
2013-01-10 01:12:00,35.0,33.0,30.26,SSE,147,5.0,7.0,94,0.00,,,0.00,,2013-01-10 07:12:00,
2013-01-10 01:22:00,35.0,33.0,30.26,South,185,2.0,7.0,94,0.00,,,0.00,,2013-01-10 07:22:00,
2013-01-10 01:32:00,34.0,33.0,30.25,SSE,154,6.0,7.0,95,0.00,,,0.00,,2013-01-10 07:32:00,
2013-01-10 01:42:00,34.0,33.0,30.25,SSE,154,6.0,7.0,95,0.00,,,0.00,,2013-01-10 07:42:00,
2013-01-10 01:52:00,35.0,34.0,30.25,SSE,147,6.0,9.0,95,0.00,,,0.00,,2013-01-10 07:52:00,
2013-01-10 02:01:00,35.0,33.0,30.25,South,169,5.0,8.0,93,0.00,,,0.00,,2013-01-10 08:01:00,
2013-01-10 02:11:00,35.0,33.0,30.25,South,169,5.0,8.0,93,0.00,,,0.00,,2013-01-10 08:11:00,
2013-01-10 02:22:00,35.0,33.0,30.24,SSE,157,5.0,8.0,93,0.00,,,0.00,,2013-01-10 08:22:00,
2013-01-10 02:32:00,35.0,33.0,30.24,South,178,5.0,7.0,94,0.00,,,0.00,,2013-01-10 08:32:00,
2013-01-10 02:42:00,35.0,33.0,30.24,South,178,5.0,7.0,94,0.00,,,0.00,,2013-01-10 08:42:00,
2013-01-10 02:53:00,35.0,33.0,30.24,South,171,3.0,7.0,93,0.00,,,0.00,,2013-01-10 08:53:00,
2013-01-10 03:02:00,35.0,33.0,30.23,SSE,157,6.0,9.0,93,0.00,,,0.00,,2013-01-10 09:02:00,
2013-01-10 03:12:00,35.0,33.0,30.23,SSE,157,6.0,9.0,93,0.00,,,0.00,,2013-01-10 09:12:00,
2013-01-10 03:22:00,35.0,33.0,30.23,SSE,161,3.0,7.0,92,0.00,,,0.00,,2013-01-10 09:22:00,
2013-01-10 03:32:00,34.0,32.0,30.23,SE,140,1.0,3.0,94,0.00,,,0.00,,2013-01-10 09:32:00,
2013-01-10 03:42:00,34.0,32.0,30.23,SE,140,1.0,3.0,94,0.00,,,0.00,,2013-01-10 09:42:00,
2013-01-10 03:52:00,34.0,33.0,30.23,SSE,166,2.0,5.0,96,0.00,,,0.00,,2013-01-10 09:52:00,
2013-01-10 04:02:00,34.0,33.0,30.22,South,175,1.0,3.0,95,0.00,,,0.00,,2013-01-10 10:02:00,
2013-01-10 04:12:00,34.0,33.0,30.22,South,175,1.0,3.0,95,0.00,,,0.00,,2013-01-10 10:12:00,
2013-01-10 04:22:00,34.0,33.0,30.22,South,171,0.0,0.0,96,0.00,,,0.00,,2013-01-10 10:22:00,
2013-01-10 04:32:00,34.0,33.0,30.21,South,187,2.0,5.0,97,0.00,,,0.00,,2013-01-10 10:32:00,
2013-01-10 04:42:00,34.0,33.0,30.21,South,187,2.0,5.0,97,0.00,,,0.00,,2013-01-10 10:42:00,
2013-01-10 04:52:00,34.0,33.0,30.21,South,178,1.0,5.0,96,0.00,,,0.00,,2013-01-10 10:52:00,
2013-01-10 05:02:00,34.0,32.0,30.20,SSE,153,3.0,7.0,94,0.00,,,0.00,,2013-01-10 11:02:00,
2013-01-10 05:12:00,33.0,32.0,30.19,SSE,148,3.0,6.0,95,0.00,,,0.00,,2013-01-10 11:12:00,
2013-01-10 05:22:00,33.0,32.0,30.19,SSE,148,3.0,6.0,95,0.00,,,0.00,,2013-01-10 11:22:00,
2013-01-10 05:32:00,32.0,31.0,30.19,SSE,155,0.0,0.0,95,0.00,,,0.00,,2013-01-10 11:32:00,
2013-01-10 05:42:00,32.0,31.0,30.19,SSE,155,0.0,0.0,95,0.00,,,0.00,,2013-01-10 11:42:00,
2013-01-10 05:53:00,32.0,31.0,30.19,SSE,155,0.0,0.0,96,0.00,,,0.00,,2013-01-10 11:53:00,
2013-01-10 06:02:00,32.0,31.0,30.18,ESE,109,0.0,0.0,96,0.00,,,0.00,,2013-01-10 12:02:00,
2013-01-10 06:12:00,32.0,31.0,30.18,ESE,109,0.0,0.0,96,0.00,,,0.00,,2013-01-10 12:12:00,
2013-01-10 06:22:00,32.0,31.0,30.17,SSE,163,3.0,9.0,96,0.00,,,0.00,,2013-01-10 12:22:00,
2013-01-10 06:32:00,33.0,31.0,30.17,South,172,5.0,6.0,92,0.00,,,0.00,,2013-01-10 12:32:00,
2013-01-10 06:42:00,33.0,31.0,30.17,South,172,5.0,6.0,92,0.00,,,0.00,,2013-01-10 12:42:00,
2013-01-10 06:53:00,34.0,31.0,30.16,SE,144,6.0,7.0,89,0.00,,,0.00,,2013-01-10 12:53:00,
2013-01-10 07:02:00,34.0,32.0,30.15,SSE,152,7.0,12.0,91,0.00,,,0.00,,2013-01-10 13:02:00,
2013-01-10 07:12:00,34.0,32.0,30.15,SSE,152,7.0,12.0,91,0.00,,,0.00,,2013-01-10 13:12:00,
2013-01-10 07:22:00,34.0,31.0,30.15,SSE,148,6.0,9.0,89,0.00,,,0.00,,2013-01-10 13:22:00,
2013-01-10 07:32:00,35.0,31.0,30.15,SE,145,5.0,6.0,86,0.00,,,0.00,,2013-01-10 13:32:00,
2013-01-10 07:42:00,35.0,31.0,30.15,SE,145,5.0,6.0,86,0.00,,,0.00,,2013-01-10 13:42:00,
2013-01-10 07:53:00,35.0,31.0,30.15,SSE,150,3.0,7.0,84,0.00,,,0.00,,2013-01-10 13:53:00,
2013-01-10 08:02:00,36.0,30.0,30.14,SSE,151,7.0,10.0,78,0.00,,,0.00,,2013-01-10 14:02:00,
2013-01-10 08:12:00,36.0,30.0,30.14,SSE,151,7.0,10.0,78,0.00,,,0.00,,2013-01-10 14:12:00,
2013-01-10 08:22:00,36.0,29.0,30.14,SE,145,8.0,12.0,76,0.00,,,0.00,,2013-01-10 14:22:00,
2013-01-10 08:32:00,36.0,29.0,30.13,SSE,149,8.0,15.0,74,0.00,,,0.00,,2013-01-10 14:32:00,
2013-01-10 08:43:00,36.0,29.0,30.13,SSE,149,8.0,15.0,74,0.00,,,0.00,,2013-01-10 14:43:00,
2013-01-10 08:53:00,37.0,29.0,30.13,SSE,161,8.0,13.0,72,0.00,,,0.00,,2013-01-10 14:53:00,
2013-01-10 09:03:00,37.0,28.0,30.12,SSE,166,5.0,9.0,71,0.00,,,0.00,,2013-01-10 15:03:00,
2013-01-10 09:12:00,37.0,28.0,30.12,SSE,166,5.0,9.0,71,0.00,,,0.00,,2013-01-10 15:12:00,
2013-01-10 09:22:00,37.0,28.0,30.11,SSE,158,9.0,12.0,69,0.00,,,0.00,,2013-01-10 15:22:00,
2013-01-10 09:32:00,37.0,28.0,30.10,SSE,155,5.0,8.0,70,0.00,,,0.00,,2013-01-10 15:32:00,
2013-01-10 09:43:00,37.0,28.0,30.10,SSE,155,5.0,8.0,70,0.00,,,0.00,,2013-01-10 15:43:00,
2013-01-10 09:53:00,37.0,28.0,30.10,SSE,163,5.0,8.0,69,0.00,,,0.00,,2013-01-10 15:53:00,
2013-01-10 10:02:00,38.0,28.0,30.08,South,186,5.0,10.0,68,0.00,,,0.00,,2013-01-10 16:02:00,
2013-01-10 10:13:00,38.0,28.0,30.08,South,186,5.0,10.0,68,0.00,,,0.00,,2013-01-10 16:13:00,
2013-01-10 10:23:00,38.0,28.0,30.07,South,175,6.0,7.0,66,0.00,,,0.00,,2013-01-10 16:23:00,
2013-01-10 10:33:00,38.0,27.0,30.06,SSE,152,6.0,10.0,64,0.00,,,0.00,,2013-01-10 16:33:00,
2013-01-10 10:42:00,38.0,27.0,30.06,SSE,152,6.0,10.0,64,0.00,,,0.00,,2013-01-10 16:42:00,
2013-01-10 10:53:00,39.0,27.0,30.04,SE,135,6.0,14.0,63,0.00,,,0.00,,2013-01-10 16:53:00,
2013-01-10 11:03:00,40.0,27.0,30.03,SSE,147,12.0,16.0,59,0.00,,,0.00,,2013-01-10 17:03:00,
2013-01-10 11:12:00,40.0,27.0,30.03,SSE,147,12.0,16.0,59,0.00,,,0.00,,2013-01-10 17:12:00,
2013-01-10 11:22:00,40.0,28.0,30.03,SSE,158,7.0,13.0,61,0.00,,,0.00,,2013-01-10 17:22:00,
2013-01-10 11:33:00,39.0,28.0,30.01,SE,141,12.0,18.0,65,0.00,,,0.00,,2013-01-10 17:33:00,
2013-01-10 11:42:00,39.0,28.0,30.01,SE,141,12.0,18.0,65,0.00,,,0.00,,2013-01-10 17:42:00,
2013-01-10 11:53:00,39.0,29.0,30.01,SSE,168,9.0,15.0,67,0.00,,,0.00,,2013-01-10 17:53:00,
2013-01-10 12:03:00,38.0,32.0,29.98,SSE,155,13.0,20.0,80,0.00,,,0.00,,2013-01-10 18:03:00,
2013-01-10 12:12:00,38.0,33.0,29.95,SSE,147,13.0,17.0,82,0.00,,,0.00,,2013-01-10 18:12:00,
2013-01-10 12:23:00,38.0,33.0,29.95,SSE,147,13.0,17.0,82,0.00,,,0.00,,2013-01-10 18:23:00,
2013-01-10 12:33:00,38.0,34.0,29.93,SE,146,5.0,12.0,85,0.00,,,0.00,,2013-01-10 18:33:00,
2013-01-10 12:43:00,39.0,33.0,29.92,SE,145,6.0,9.0,78,0.00,,,0.00,,2013-01-10 18:43:00,
2013-01-10 12:53:00,39.0,33.0,29.92,SE,145,6.0,9.0,78,0.00,,,0.00,,2013-01-10 18:53:00,
2013-01-10 13:02:00,39.0,31.0,29.92,SSE,154,7.0,12.0,73,0.00,,,0.00,,2013-01-10 19:02:00,
2013-01-10 13:12:00,40.0,31.0,29.92,SE,146,6.0,9.0,70,0.00,,,0.00,,2013-01-10 19:12:00,
2013-01-10 13:23:00,40.0,31.0,29.92,SE,146,6.0,9.0,70,0.00,,,0.00,,2013-01-10 19:23:00,
2013-01-10 13:32:00,39.0,31.0,29.91,SSE,159,5.0,10.0,73,0.00,,,0.00,,2013-01-10 19:32:00,
2013-01-10 13:43:00,39.0,31.0,29.91,SSE,167,5.0,8.0,74,0.00,,,0.00,,2013-01-10 19:43:00,
2013-01-10 13:53:00,39.0,31.0,29.91,SSE,167,5.0,8.0,74,0.00,,,0.00,,2013-01-10 19:53:00,
2013-01-10 14:02:00,39.0,32.0,29.90,SSE,158,3.0,9.0,77,0.00,,,0.00,,2013-01-10 20:02:00,
2013-01-10 14:12:00,38.0,32.0,29.90,SE,141,5.0,8.0,80,0.00,,,0.00,,2013-01-10 20:12:00,
2013-01-10 14:23:00,38.0,32.0,29.90,SE,141,5.0,8.0,80,0.00,,,0.00,,2013-01-10 20:23:00,
2013-01-10 14:32:00,37.0,32.0,29.88,SE,142,5.0,10.0,83,0.00,,,0.00,,2013-01-10 20:32:00,
2013-01-10 14:42:00,37.0,32.0,29.88,SE,142,5.0,10.0,83,0.00,,,0.00,,2013-01-10 20:42:00,
2013-01-10 14:53:00,38.0,34.0,29.88,SSE,164,2.0,6.0,85,0.00,,,0.00,,2013-01-10 20:53:00,
2013-01-10 15:03:00,37.0,33.0,29.87,SSE,153,5.0,8.0,84,0.00,,,0.00,,2013-01-10 21:03:00,
2013-01-10 15:12:00,37.0,33.0,29.86,SSE,151,5.0,7.0,86,0.01,,,0.01,,2013-01-10 21:12:00,
2013-01-10 15:23:00,37.0,33.0,29.86,SSE,151,5.0,7.0,86,0.01,,,0.01,,2013-01-10 21:23:00,
2013-01-10 15:33:00,37.0,34.0,29.85,SSE,147,5.0,7.0,90,0.01,,,0.01,,2013-01-10 21:33:00,
2013-01-10 15:42:00,37.0,34.0,29.85,SSE,147,5.0,7.0,90,0.01,,,0.01,,2013-01-10 21:42:00,
2013-01-10 15:53:00,37.0,34.0,29.84,SE,146,2.0,9.0,88,0.01,,,0.01,,2013-01-10 21:53:00,
2013-01-10 16:03:00,37.0,34.0,29.83,SSE,152,7.0,10.0,87,0.01,,,0.01,,2013-01-10 22:03:00,
2013-01-10 16:12:00,38.0,35.0,29.82,SSE,147,5.0,9.0,89,0.00,,,0.01,,2013-01-10 22:12:00,
2013-01-10 16:25:00,38.0,35.0,29.82,SSE,147,5.0,9.0,89,0.00,,,0.01,,2013-01-10 22:25:00,
2013-01-10 16:32:00,37.0,35.0,29.80,SE,141,7.0,9.0,94,0.00,,,0.01,,2013-01-10 22:32:00,
2013-01-10 16:43:00,37.0,35.0,29.80,SE,141,7.0,9.0,94,0.00,,,0.01,,2013-01-10 22:43:00,
2013-01-10 17:02:00,37.0,35.0,29.80,SSE,152,5.0,10.0,94,0.00,,,0.01,,2013-01-10 23:02:00,
2013-01-10 17:12:00,37.0,35.0,29.80,SE,143,6.0,8.0,93,0.00,,,0.01,,2013-01-10 23:12:00,
2013-01-10 17:22:00,37.0,35.0,29.80,SE,143,6.0,8.0,93,0.00,,,0.01,,2013-01-10 23:22:00,
2013-01-10 17:33:00,37.0,35.0,29.80,SSE,157,5.0,9.0,94,0.00,,,0.01,,2013-01-10 23:33:00,
2013-01-10 17:43:00,37.0,35.0,29.80,SSE,157,5.0,9.0,94,0.00,,,0.01,,2013-01-10 23:43:00,
2013-01-10 17:53:00,37.0,36.0,29.78,SSE,149,7.0,14.0,95,0.00,,,0.01,,2013-01-10 23:53:00,
2013-01-10 18:02:00,36.0,35.0,29.78,SSE,150,6.0,10.0,95,0.00,,,0.01,,2013-01-11 00:02:00,
2013-01-10 18:12:00,37.0,36.0,29.77,SE,142,8.0,14.0,96,0.00,,,0.01,,2013-01-11 00:12:00,
2013-01-10 18:23:00,37.0,36.0,29.77,SE,142,8.0,14.0,96,0.00,,,0.01,,2013-01-11 00:23:00,
2013-01-10 18:33:00,37.0,36.0,29.76,South,169,6.0,8.0,98,0.00,,,0.01,,2013-01-11 00:33:00,
2013-01-10 18:42:00,37.0,36.0,29.76,South,169,6.0,8.0,98,0.00,,,0.01,,2013-01-11 00:42:00,
2013-01-10 18:53:00,37.0,37.0,29.75,South,182,5.0,6.0,99,0.00,,,0.01,,2013-01-11 00:53:00,
2013-01-10 19:02:00,37.0,37.0,29.75,SSE,167,3.0,8.0,99,0.00,,,0.01,,2013-01-11 01:02:00,
2013-01-10 19:12:00,37.0,37.0,29.75,South,177,5.0,9.0,99,0.00,,,0.01,,2013-01-11 01:12:00,
2013-01-10 19:22:00,37.0,37.0,29.75,South,177,5.0,9.0,99,0.00,,,0.01,,2013-01-11 01:22:00,
2013-01-10 19:33:00,36.0,36.0,29.73,South,181,5.0,6.0,99,0.00,,,0.01,,2013-01-11 01:33:00,
2013-01-10 19:43:00,36.0,36.0,29.73,South,181,5.0,6.0,99,0.00,,,0.01,,2013-01-11 01:43:00,
2013-01-10 19:53:00,36.0,36.0,29.73,SSE,162,5.0,10.0,99,0.00,,,0.01,,2013-01-11 01:53:00,
2013-01-10 20:02:00,36.0,36.0,29.74,South,174,3.0,10.0,99,0.00,,,0.01,,2013-01-11 02:02:00,
2013-01-10 20:12:00,36.0,36.0,29.73,South,183,5.0,7.0,99,0.00,,,0.01,,2013-01-11 02:12:00,
2013-01-10 20:23:00,36.0,36.0,29.73,South,183,5.0,7.0,99,0.00,,,0.01,,2013-01-11 02:23:00,
2013-01-10 20:33:00,36.0,36.0,29.73,South,174,5.0,8.0,99,0.00,,,0.01,,2013-01-11 02:33:00,
2013-01-10 20:43:00,36.0,36.0,29.73,South,174,5.0,8.0,99,0.00,,,0.01,,2013-01-11 02:43:00,
2013-01-10 20:54:00,36.0,36.0,29.72,SSW,192,6.0,8.0,99,0.00,,,0.01,,2013-01-11 02:54:00,
2013-01-10 21:02:00,36.0,36.0,29.72,SSW,194,3.0,8.0,99,0.00,,,0.01,,2013-01-11 03:02:00,
2013-01-10 21:12:00,36.0,36.0,29.72,SSW,206,6.0,8.0,99,0.00,,,0.01,,2013-01-11 03:12:00,
2013-01-10 21:23:00,36.0,36.0,29.72,SSW,206,6.0,8.0,99,0.00,,,0.01,,2013-01-11 03:23:00,
2013-01-10 21:33:00,36.0,36.0,29.72,South,175,6.0,9.0,99,0.00,,,0.01,,2013-01-11 03:33:00,
2013-01-10 21:42:00,36.0,36.0,29.72,South,175,6.0,9.0,99,0.00,,,0.01,,2013-01-11 03:42:00,
2013-01-10 21:53:00,36.0,36.0,29.70,SSE,158,5.0,8.0,99,0.00,,,0.01,,2013-01-11 03:53:00,
2013-01-10 22:02:00,36.0,36.0,29.69,South,169,5.0,9.0,99,0.00,,,0.01,,2013-01-11 04:02:00,
2013-01-10 22:12:00,36.0,36.0,29.70,South,169,5.0,7.0,99,0.00,,,0.01,,2013-01-11 04:12:00,
2013-01-10 22:22:00,36.0,36.0,29.70,South,169,5.0,7.0,99,0.00,,,0.01,,2013-01-11 04:22:00,
2013-01-10 22:33:00,36.0,36.0,29.69,South,172,6.0,12.0,99,0.00,,,0.01,,2013-01-11 04:33:00,
2013-01-10 22:42:00,36.0,36.0,29.69,South,172,6.0,12.0,99,0.00,,,0.01,,2013-01-11 04:42:00,
2013-01-10 22:53:00,35.0,35.0,29.67,SSE,159,6.0,12.0,99,0.00,,,0.01,,2013-01-11 04:53:00,
2013-01-10 23:03:00,35.0,35.0,29.67,SSE,167,6.0,9.0,99,0.00,,,0.01,,2013-01-11 05:03:00,
2013-01-10 23:12:00,36.0,36.0,29.67,South,181,7.0,8.0,99,0.00,,,0.01,,2013-01-11 05:12:00,
2013-01-10 23:22:00,36.0,36.0,29.67,South,181,7.0,8.0,99,0.00,,,0.01,,2013-01-11 05:22:00,
2013-01-10 23:33:00,35.0,35.0,29.66,South,175,7.0,10.0,99,0.00,,,0.01,,2013-01-11 05:33:00,
2013-01-10 23:42:00,35.0,35.0,29.66,South,175,7.0,10.0,99,0.00,,,0.01,,2013-01-11 05:42:00,
2013-01-10 23:53:00,35.0,35.0,29.64,South,180,3.0,7.0,99,0.00,,,0.01,,2013-01-11 05:53:00,